Torna al catalogo

NOAA 16 DEB

AttivoPO
NORAD 41132·DEBRIS·🇺🇸 United States

Lanciato Sep 21, 2000 da Vandenberg Space Force Base

Loading…

Prossimi Passaggi (prossime 24 ore)

TLE

AggiornatoSource: Space-Track

Epoca: Sep 14, 2026, 07:50 UTC

1 41132U 00055BP  26257.32663235  .00006863  00000-0  12306-2 0  9990
2 41132  98.8647  84.8072 0027683  76.8483 283.5805 14.66864088562764

Traccia NOAA 16 DEB in tempo reale con AllMySat

Download on the App Store